This demonstration page uses our WeatherBlox Daily Observations layout. Learn more.

Left ArrowRight Arrow

Hourly Observations for March 24, 2019

Temp ( °F °C ) Dew Point ( °F °C ) Humidity (%) Winds ( mph kmh ) Pressure ( in mb ) Visibility ( mi km ) Precip ( " mm )
12:24 am 00:24 Cloudy with Mist and Fog 45 7 43 6 93 93 NE 13 20 29.90 1013 5 8 0.00 0.00
12:57 am 00:57 Cloudy with Mist and Fog 43 6.1 42 5.6 97 97 NNE 15 24 29.89 1012 5 8 0.00 0.00
1:57 am 01:57 Cloudy with Light Rain 42 5.6 42 5.6 100 100 N 16 26 29.90 1013 4 6 0.01 0.25
2:57 am 02:57 Cloudy with Light Rain 41 5 40 4.4 96 96 N 17 28 29.92 1013 6 10 0.15 3.81
3:10 am 03:10 Cloudy with Light Rain 41 5 39 4 93 93 NNW 18 30 29.97 1015 7 11 0.00 0.03
3:57 am 03:57 Cloudy with Light Rain 41 5 40 4.4 96 96 NNW 16 26 29.93 1014 10 16 0.00 0.03
4:09 am 04:09 Cloudy with Light Rain 41 5 39 4 93 93 NNW 15 24 29.98 1015 10 16 0.00 0.00
4:51 am 04:51 Cloudy with Light Rain 41 5 39 4 93 93 N 21 33 29.97 1015 8 13 0.01 0.25
4:57 am 04:57 Cloudy with Light Rain 41 5 39 3.9 93 93 N 16 26 29.93 1014 9 14 0.01 0.25
5:08 am 05:08 Cloudy 41 5 39 4 93 93 NNW 13 20 29.99 1015 8 13 0.00 0.00
5:18 am 05:18 Cloudy 41 5 39 4 93 93 NNW 14 22 29.99 1015 8 13 0.00 0.00
5:57 am 05:57 Cloudy 41 5 39 3.9 93 93 NNW 12 19 29.96 1015 8 13 0.00 0.00
6:57 am 06:57 Cloudy with Mist and Fog 41 5 39 3.9 93 93 NNW 12 19 29.99 1016 6 10 0.00 0.00
9:57 am 09:57 Cloudy with Mist and Fog 42 5.6 40 4.4 92 92 N 15 24 30.06 1018 6 10 0.00 0.00
10:14 am 10:14 Cloudy with Mist and Fog 43 6 39 4 87 87 N 15 24 30.09 1019 6 10 0.00 0.00
10:57 am 10:57 Cloudy 45 7.2 42 5.6 90 90 N 16 26 30.08 1019 9 14 0.00 0.00
11:22 am 11:22 Cloudy 46 8 43 6 87 87 N 17 28 30.08 1019 9 14 0.00 0.00
11:47 am 11:47 Cloudy 46 8 43 6 87 87 N 15 24 30.09 1019 10 16 0.00 0.00
11:57 am 11:57 Cloudy 46 7.8 42 5.6 86 86 N 13 20 30.09 1019 10 16 0.00 0.00
12:32 pm 12:32 Cloudy 48 9 45 7 87 87 N 17 28 30.07 1018 10 16 0.00 0.00
12:57 pm 12:57 Mostly Cloudy 49 9.4 43 6.1 80 80 N 16 26 30.08 1019 10 16 0.00 0.00
1:57 pm 13:57 Cloudy 48 8.9 42 5.6 80 80 N 8 13 30.10 1019 10 16 0.00 0.00
2:57 pm 14:57 Cloudy 50 10 43 6.1 77 77 NNW 9 15 30.10 1019 10 16 0.00 0.00
3:57 pm 15:57 Cloudy 51 10.6 43 6.1 74 74 N 12 19 30.10 1019 10 16 0.00 0.00
4:26 pm 16:26 Cloudy 52 11 43 6 72 72 NNW 15 24 30.09 1019 10 16 0.00 0.00
4:54 pm 16:54 Cloudy 50 10 43 6 76 76 N 15 24 30.10 1019 10 16 0.00 0.00
4:57 pm 16:57 Cloudy 50 10 42 5.6 74 74 N 15 24 30.10 1019 10 16 0.00 0.00
5:14 pm 17:14 Cloudy 50 10 43 6 76 76 N 13 20 30.10 1019 10 16 0.00 0.00
5:25 pm 17:25 Mostly Cloudy 50 10 43 6 76 76 N 12 19 30.10 1019 10 16 0.00 0.00
5:57 pm 17:57 Cloudy 50 10 43 6.1 77 77 N 10 17 30.11 1020 10 16 0.00 0.00
6:57 pm 18:57 Cloudy 50 10 43 6.1 77 77 N 10 17 30.14 1021 10 16 0.00 0.00
7:57 pm 19:57 Cloudy 49 9.4 43 6.1 80 80 N 6 9 30.16 1021 10 16 0.00 0.00
8:57 pm 20:57 Cloudy 48 8.9 42 5.6 80 80 NNW 6 9 30.18 1022 10 16 0.00 0.00
9:57 pm 21:57 Cloudy 47 8.3 41 5 80 80 NNE 14 22 30.21 1023 10 16 0.00 0.00
10:57 pm 22:57 Cloudy 45 7.2 40 4.4 83 83 N 10 17 30.24 1024 10 16 0.00 0.00
11:57 pm 23:57 Cloudy 44 6.7 40 4.4 85 85 NNE 10 17 30.24 1024 10 16 0.00 0.00

Powered by AerisWeather